RPB4681 SKBO-SKRG

Flight info

Callsign RPB4681
Flight time 0h 27m
Altitude 20000
Route TOBKI4R VASIL W36 NIRSO NIRSO3C
Aircraft E190/M-SDE3GILORVW/S

Departure

Time 2026-05-07 01:03
Airport El Dorado International Airport (SKBO)

Arrival

Time 2026-05-07 01:31
Airport Jose Maria Córdova International Airport (SKRG)
Time Latitude Longitude Altitude Speed Heading
2026-05-07 00:27 4.70016 -74.14387 8371 ft 0 kts 36°
2026-05-07 00:48 4.70010 -74.14391 8371 ft 2 kts 36°
2026-05-07 00:49 4.69998 -74.14401 8371 ft 2 kts 36°
2026-05-07 00:49 4.69987 -74.14408 8371 ft 0 kts 36°
2026-05-07 00:49 4.69977 -74.14414 8371 ft 2 kts
2026-05-07 00:49 4.69962 -74.14413 8371 ft 2 kts 338°
2026-05-07 00:50 4.69952 -74.14407 8371 ft 0 kts 311°
2026-05-07 00:50 4.69947 -74.14401 8371 ft 1 kts 306°
2026-05-07 00:50 4.69947 -74.14400 8371 ft 0 kts 307°
2026-05-07 00:53 4.69949 -74.14403 8371 ft 0 kts 307°
2026-05-07 00:54 4.69954 -74.14410 8371 ft 1 kts 307°
2026-05-07 00:54 4.69964 -74.14422 8371 ft 3 kts 308°
2026-05-07 00:54 4.69982 -74.14445 8371 ft 5 kts 308°
2026-05-07 00:54 4.70013 -74.14484 8370 ft 8 kts 307°
2026-05-07 00:55 4.70056 -74.14544 8370 ft 11 kts 298°
2026-05-07 00:55 4.70087 -74.14631 8370 ft 14 kts 265°
2026-05-07 00:55 4.70013 -74.14709 8370 ft 17 kts 216°
2026-05-07 00:55 4.69907 -74.14789 8370 ft 20 kts 217°
2026-05-07 00:56 4.69801 -74.14877 8370 ft 17 kts 245°
2026-05-07 00:56 4.69855 -74.14991 8369 ft 20 kts 307°
2026-05-07 00:56 4.69944 -74.15111 8369 ft 22 kts 310°
2026-05-07 00:56 4.70040 -74.15235 8369 ft 20 kts 309°
2026-05-07 00:57 4.70133 -74.15356 8369 ft 23 kts 306°
2026-05-07 00:57 4.70238 -74.15494 8368 ft 25 kts 306°
2026-05-07 00:57 4.70349 -74.15641 8368 ft 27 kts 307°
2026-05-07 00:57 4.70467 -74.15793 8368 ft 25 kts 307°
2026-05-07 00:58 4.70580 -74.15942 8367 ft 28 kts 305°
2026-05-07 00:58 4.70707 -74.16109 8367 ft 26 kts 305°
2026-05-07 00:58 4.70813 -74.16250 8367 ft 26 kts 306°
2026-05-07 00:58 4.70929 -74.16402 8366 ft 24 kts 307°
2026-05-07 00:59 4.71142 -74.16679 8366 ft 25 kts 308°
2026-05-07 00:59 4.71245 -74.16823 8365 ft 19 kts 283°
2026-05-07 00:59 4.71225 -74.16876 8365 ft 0 kts 216°
2026-05-07 01:01 4.71223 -74.16877 8365 ft 0 kts 216°
2026-05-07 01:01 4.71207 -74.16888 8365 ft 6 kts 211°
2026-05-07 01:01 4.71177 -74.16898 8365 ft 0 kts 188°
2026-05-07 01:02 4.71172 -74.16899 8365 ft 1 kts 185°
2026-05-07 01:02 4.71154 -74.16899 8365 ft 3 kts 176°
2026-05-07 01:02 4.71106 -74.16894 8365 ft 11 kts 173°
2026-05-07 01:02 4.71003 -74.16856 8365 ft 23 kts 130°
2026-05-07 01:03 4.70762 -74.16545 8366 ft 88 kts 127°
2026-05-07 01:03 4.70274 -74.15901 8368 ft 142 kts 128°
2026-05-07 01:03 4.69582 -74.14998 8525 ft 170 kts 126°
2026-05-07 01:03 4.68848 -74.14053 8976 ft 181 kts 126°
2026-05-07 01:04 4.67883 -74.13110 9221 ft 203 kts 156°
2026-05-07 01:04 4.66512 -74.13095 9931 ft 204 kts 199°
2026-05-07 01:04 4.65392 -74.14067 10261 ft 226 kts 237°
2026-05-07 01:04 4.64591 -74.15500 10676 ft 241 kts 238°
2026-05-07 01:05 4.63743 -74.16994 11106 ft 254 kts 240°
2026-05-07 01:05 4.62845 -74.18555 11635 ft 262 kts 238°
2026-05-07 01:05 4.61920 -74.20157 12227 ft 267 kts 241°
2026-05-07 01:05 4.61341 -74.21962 12587 ft 286 kts 259°
2026-05-07 01:06 4.60930 -74.24086 12586 ft 323 kts 259°
2026-05-07 01:06 4.60484 -74.26386 12742 ft 349 kts 259°
2026-05-07 01:06 4.60220 -74.28861 13237 ft 360 kts 268°
2026-05-07 01:06 4.60085 -74.31395 13945 ft 364 kts 268°
2026-05-07 01:07 4.59948 -74.33916 14743 ft 363 kts 268°
2026-05-07 01:07 4.59810 -74.36459 15481 ft 365 kts 268°
2026-05-07 01:07 4.59712 -74.38970 16122 ft 367 kts 275°
2026-05-07 01:07 4.60417 -74.41422 16703 ft 365 kts 302°
2026-05-07 01:08 4.61880 -74.43494 17282 ft 366 kts 310°
2026-05-07 01:08 4.63442 -74.45516 17898 ft 370 kts 310°
2026-05-07 01:08 4.65058 -74.47586 18536 ft 373 kts 311°
2026-05-07 01:08 4.66674 -74.49648 19146 ft 376 kts 310°
2026-05-07 01:09 4.68299 -74.51719 19712 ft 373 kts 310°
2026-05-07 01:09 4.69917 -74.53781 20131 ft 376 kts 310°
2026-05-07 01:09 4.71571 -74.55885 20230 ft 394 kts 310°
2026-05-07 01:09 4.73327 -74.58122 20247 ft 407 kts 310°
2026-05-07 01:10 4.75185 -74.60239 20231 ft 406 kts 322°
2026-05-07 01:10 4.77433 -74.61974 20258 ft 404 kts 325°
2026-05-07 01:10 4.79732 -74.63688 20215 ft 404 kts 326°
2026-05-07 01:10 4.81992 -74.65367 20203 ft 404 kts 326°
2026-05-07 01:11 4.84292 -74.67077 20164 ft 404 kts 325°
2026-05-07 01:11 4.86521 -74.68815 20161 ft 404 kts 324°
2026-05-07 01:11 4.88746 -74.70558 20154 ft 404 kts 324°
2026-05-07 01:11 4.90959 -74.72293 20112 ft 404 kts 324°
2026-05-07 01:12 4.93173 -74.74055 20097 ft 405 kts 320°
2026-05-07 01:12 4.94905 -74.76341 20115 ft 410 kts 300°
2026-05-07 01:12 4.96176 -74.78902 20126 ft 411 kts 298°
2026-05-07 01:12 4.97427 -74.81467 20105 ft 410 kts 298°
2026-05-07 01:13 4.98695 -74.84070 20116 ft 411 kts 298°
2026-05-07 01:13 4.99953 -74.86655 20105 ft 411 kts 297°
2026-05-07 01:13 5.01214 -74.89245 20111 ft 410 kts 298°
2026-05-07 01:13 5.02461 -74.91806 20105 ft 411 kts 298°
2026-05-07 01:14 5.03729 -74.94411 20116 ft 410 kts 298°
2026-05-07 01:14 5.04979 -74.96980 20108 ft 409 kts 298°
2026-05-07 01:14 5.06239 -74.99569 20106 ft 411 kts 298°
2026-05-07 01:14 5.07484 -75.02129 20131 ft 410 kts 298°
2026-05-07 01:15 5.08744 -75.04717 20160 ft 410 kts 297°
2026-05-07 01:15 5.09983 -75.07265 20190 ft 411 kts 297°
2026-05-07 01:15 5.11242 -75.09856 20225 ft 410 kts 297°
2026-05-07 01:15 5.12513 -75.12467 20276 ft 411 kts 297°
2026-05-07 01:16 5.13781 -75.15074 20313 ft 411 kts 297°
2026-05-07 01:16 5.15038 -75.17655 20346 ft 410 kts 299°
2026-05-07 01:16 5.16701 -75.19997 20393 ft 407 kts 313°
2026-05-07 01:16 5.18574 -75.22137 20410 ft 407 kts 313°
2026-05-07 01:17 5.20460 -75.24275 20435 ft 406 kts 314°
2026-05-07 01:17 5.22323 -75.26385 20445 ft 406 kts 313°
2026-05-07 01:17 5.24223 -75.28535 20437 ft 406 kts 314°
2026-05-07 01:17 5.26116 -75.30676 20419 ft 406 kts 313°
2026-05-07 01:18 5.27995 -75.32803 20396 ft 406 kts 313°
2026-05-07 01:18 5.29857 -75.34910 20372 ft 404 kts 313°
2026-05-07 01:18 5.31700 -75.36997 20344 ft 393 kts 313°
2026-05-07 01:18 5.33713 -75.38841 20330 ft 387 kts 332°
2026-05-07 01:19 5.36234 -75.39739 20372 ft 382 kts 354°
2026-05-07 01:19 5.38917 -75.40012 20157 ft 384 kts 358°
2026-05-07 01:19 5.41580 -75.40195 19737 ft 381 kts 359°
2026-05-07 01:19 5.44229 -75.40354 19308 ft 377 kts 359°
2026-05-07 01:20 5.46852 -75.40503 18884 ft 373 kts 360°
2026-05-07 01:20 5.49464 -75.40649 18459 ft 371 kts 360°
2026-05-07 01:20 5.52010 -75.40791 18047 ft 368 kts 360°
2026-05-07 01:20 5.54612 -75.40936 17377 ft 370 kts
2026-05-07 01:21 5.57146 -75.41077 16927 ft 361 kts
2026-05-07 01:21 5.59645 -75.41215 16522 ft 352 kts
2026-05-07 01:21 5.62073 -75.41351 16140 ft 341 kts
2026-05-07 01:21 5.64441 -75.41482 15771 ft 331 kts
2026-05-07 01:22 5.66702 -75.41608 15419 ft 322 kts
2026-05-07 01:22 5.68931 -75.41730 15063 ft 314 kts
2026-05-07 01:22 5.71102 -75.41851 14717 ft 306 kts
2026-05-07 01:22 5.73239 -75.41970 14384 ft 299 kts
2026-05-07 01:23 5.75305 -75.42084 14060 ft 293 kts
2026-05-07 01:23 5.77320 -75.42195 13746 ft 286 kts
2026-05-07 01:23 5.79267 -75.42210 13593 ft 270 kts
2026-05-07 01:23 5.81112 -75.42153 13340 ft 260 kts
2026-05-07 01:24 5.82910 -75.42124 13035 ft 253 kts
2026-05-07 01:24 5.84674 -75.42115 12726 ft 247 kts
2026-05-07 01:24 5.86380 -75.42115 12418 ft 241 kts
2026-05-07 01:24 5.88058 -75.42117 12100 ft 237 kts
2026-05-07 01:25 5.89701 -75.42117 11765 ft 234 kts
2026-05-07 01:25 5.91291 -75.42109 11528 ft 211 kts
2026-05-07 01:25 5.92655 -75.42100 11415 ft 184 kts
2026-05-07 01:25 5.93921 -75.42084 11169 ft 180 kts
2026-05-07 01:26 5.95178 -75.42056 10915 ft 177 kts
2026-05-07 01:26 5.96367 -75.42024 10645 ft 162 kts
2026-05-07 01:26 5.97504 -75.42081 10352 ft 158 kts
2026-05-07 01:26 5.98601 -75.42136 10125 ft 158 kts
2026-05-07 01:27 5.99713 -75.42169 9909 ft 160 kts
2026-05-07 01:27 6.00842 -75.42189 9691 ft 160 kts
2026-05-07 01:27 6.01958 -75.42203 9472 ft 159 kts
2026-05-07 01:27 6.03057 -75.42213 9252 ft 158 kts
2026-05-07 01:28 6.04171 -75.42222 9038 ft 158 kts
2026-05-07 01:28 6.05261 -75.42230 8837 ft 156 kts
2026-05-07 01:28 6.06362 -75.42239 8631 ft 155 kts
2026-05-07 01:28 6.07451 -75.42246 8438 ft 155 kts
2026-05-07 01:29 6.08532 -75.42254 8233 ft 154 kts
2026-05-07 01:29 6.09612 -75.42261 8030 ft 154 kts
2026-05-07 01:29 6.10682 -75.42268 7832 ft 153 kts
2026-05-07 01:29 6.11765 -75.42303 7601 ft 154 kts
2026-05-07 01:30 6.12851 -75.42313 7446 ft 152 kts
2026-05-07 01:30 6.13920 -75.42311 7209 ft 153 kts
2026-05-07 01:30 6.14956 -75.42310 7041 ft 149 kts 359°
2026-05-07 01:30 6.15922 -75.42313 7022 ft 116 kts
2026-05-07 01:31 6.16584 -75.42314 7022 ft 73 kts
2026-05-07 01:31 6.16998 -75.42355 7022 ft 56 kts 333°
2026-05-07 01:31 6.17187 -75.42470 7021 ft 11 kts 299°
2026-05-07 01:31 6.17183 -75.42523 7021 ft 6 kts 267°
2026-05-07 01:32 6.17181 -75.42572 7021 ft 7 kts 266°
2026-05-07 01:32 6.17151 -75.42613 7021 ft 8 kts 196°
2026-05-07 01:32 6.17087 -75.42617 7021 ft 9 kts 189°
2026-05-07 01:32 6.17029 -75.42656 7021 ft 10 kts 219°
2026-05-07 01:33 6.16964 -75.42707 7022 ft 12 kts 225°
2026-05-07 01:33 6.16913 -75.42789 7022 ft 14 kts 250°
2026-05-07 01:33 6.16886 -75.42889 7022 ft 14 kts 256°
2026-05-07 01:33 6.16878 -75.42922 7022 ft 3 kts 274°
2026-05-07 01:34 6.16894 -75.42944 7022 ft 4 kts 335°
2026-05-07 01:34 6.16919 -75.42951 7022 ft 2 kts 346°
2026-05-07 01:34 6.16923 -75.42952 7022 ft 0 kts 346°